Time,TemperatureF,DewpointF,PressureIn,WindDirection,WindDirectionDegrees,WindSpeedMPH,WindSpeedGustMPH,Humidity,HourlyPrecipIn,Conditions,Clouds,dailyrainin,SoftwareType,DateUTC
2013-04-30 00:01:00,41.7,40.0,30.26,SE,135,0.0,0.0,91,0.00,,,0.00,Rainwise IP-100,2013-04-30 04:01:00,
2013-04-30 00:05:00,41.7,40.0,30.26,SE,135,0.0,0.0,91,0.00,,,0.00,Rainwise IP-100,2013-04-30 04:05:00,
2013-04-30 00:06:00,41.7,40.0,30.26,SE,135,0.0,0.0,91,0.00,,,0.00,Rainwise IP-100,2013-04-30 04:06:00,
2013-04-30 00:07:00,41.7,40.0,30.27,SE,135,0.0,0.0,91,0.00,,,0.00,Rainwise IP-100,2013-04-30 04:07:00,
2013-04-30 00:12:00,41.5,39.0,30.26,SE,135,0.0,0.0,90,0.00,,,0.00,Rainwise IP-100,2013-04-30 04:12:00,
2013-04-30 00:17:00,41.1,38.0,30.26,SE,135,0.0,0.0,90,0.00,,,0.00,Rainwise IP-100,2013-04-30 04:17:00,
2013-04-30 00:22:00,41.1,38.0,30.27,SE,135,0.0,0.0,90,0.00,,,0.00,Rainwise IP-100,2013-04-30 04:22:00,
2013-04-30 00:27:00,41.1,39.0,30.27,SE,135,0.0,0.0,91,0.00,,,0.00,Rainwise IP-100,2013-04-30 04:27:00,
2013-04-30 00:32:00,40.8,39.0,30.26,SE,135,0.0,0.0,91,0.00,,,0.00,Rainwise IP-100,2013-04-30 04:32:00,
2013-04-30 00:37:00,40.4,38.0,30.26,SE,135,0.0,0.0,91,0.00,,,0.00,Rainwise IP-100,2013-04-30 04:37:00,
2013-04-30 00:42:00,40.3,38.0,30.26,SE,135,0.0,0.0,91,0.00,,,0.00,Rainwise IP-100,2013-04-30 04:42:00,
2013-04-30 00:47:00,40.4,38.0,30.26,SE,135,0.0,0.0,91,0.00,,,0.00,Rainwise IP-100,2013-04-30 04:47:00,
2013-04-30 00:52:00,40.5,39.0,30.26,SE,135,0.0,0.0,92,0.00,,,0.00,Rainwise IP-100,2013-04-30 04:52:00,
2013-04-30 00:57:00,40.9,39.0,30.26,SE,135,0.0,0.0,92,0.00,,,0.00,Rainwise IP-100,2013-04-30 04:57:00,
2013-04-30 01:02:00,41.2,39.0,30.26,SE,135,0.0,0.0,93,0.00,,,0.00,Rainwise IP-100,2013-04-30 05:02:00,
2013-04-30 01:07:00,41.1,39.0,30.26,SE,135,0.0,0.0,93,0.00,,,0.00,Rainwise IP-100,2013-04-30 05:07:00,
2013-04-30 01:12:00,40.8,39.0,30.25,SE,135,0.0,0.0,93,0.00,,,0.00,Rainwise IP-100,2013-04-30 05:12:00,
2013-04-30 01:17:00,40.6,39.0,30.25,SE,135,0.0,0.0,93,0.00,,,0.00,Rainwise IP-100,2013-04-30 05:17:00,
2013-04-30 01:22:00,40.5,39.0,30.25,SE,135,0.0,0.0,93,0.00,,,0.00,Rainwise IP-100,2013-04-30 05:22:00,
2013-04-30 01:27:00,40.3,38.0,30.25,SE,135,0.0,0.0,93,0.00,,,0.00,Rainwise IP-100,2013-04-30 05:27:00,
2013-04-30 01:32:00,40.1,38.0,30.25,SE,135,0.0,0.0,93,0.00,,,0.00,Rainwise IP-100,2013-04-30 05:32:00,
2013-04-30 01:37:00,39.7,39.0,30.25,SE,135,0.0,0.0,94,0.00,,,0.00,Rainwise IP-100,2013-04-30 05:37:00,
2013-04-30 01:42:00,39.4,38.0,30.25,SE,135,0.0,0.0,94,0.00,,,0.00,Rainwise IP-100,2013-04-30 05:42:00,
2013-04-30 01:47:00,39.2,38.0,30.25,SE,135,0.0,0.0,94,0.00,,,0.00,Rainwise IP-100,2013-04-30 05:47:00,
2013-04-30 01:52:00,39.2,38.0,30.25,SE,135,0.0,0.0,94,0.00,,,0.00,Rainwise IP-100,2013-04-30 05:52:00,
2013-04-30 01:57:00,39.2,38.0,30.25,SE,135,0.0,0.0,94,0.00,,,0.00,Rainwise IP-100,2013-04-30 05:57:00,
2013-04-30 02:02:00,39.2,38.0,30.25,SE,135,0.0,0.0,94,0.00,,,0.00,Rainwise IP-100,2013-04-30 06:02:00,
2013-04-30 02:07:00,39.1,38.0,30.25,SE,135,0.0,0.0,95,0.00,,,0.00,Rainwise IP-100,2013-04-30 06:07:00,
2013-04-30 02:12:00,39.1,38.0,30.25,SE,135,0.0,0.0,95,0.00,,,0.00,Rainwise IP-100,2013-04-30 06:12:00,
2013-04-30 02:17:00,39.0,38.0,30.25,SE,135,0.0,0.0,95,0.00,,,0.00,Rainwise IP-100,2013-04-30 06:17:00,
2013-04-30 02:22:00,38.8,38.0,30.25,SE,135,0.0,0.0,95,0.00,,,0.00,Rainwise IP-100,2013-04-30 06:22:00,
2013-04-30 02:27:00,38.5,38.0,30.25,SE,135,0.0,0.0,95,0.00,,,0.00,Rainwise IP-100,2013-04-30 06:27:00,
2013-04-30 02:32:00,38.3,37.0,30.25,SE,135,0.0,0.0,95,0.00,,,0.00,Rainwise IP-100,2013-04-30 06:32:00,
2013-04-30 02:37:00,38.2,37.0,30.25,SE,135,0.0,0.0,95,0.00,,,0.00,Rainwise IP-100,2013-04-30 06:37:00,
2013-04-30 02:42:00,38.2,37.0,30.25,SE,135,0.0,0.0,95,0.00,,,0.00,Rainwise IP-100,2013-04-30 06:42:00,
2013-04-30 02:47:00,38.3,37.0,30.25,SE,135,0.0,0.0,95,0.00,,,0.00,Rainwise IP-100,2013-04-30 06:47:00,
2013-04-30 02:52:00,38.3,37.0,30.25,NE,45,1.4,1.6,96,0.00,,,0.00,Rainwise IP-100,2013-04-30 06:52:00,
2013-04-30 02:57:00,38.3,37.0,30.25,NE,45,0.0,1.9,96,0.00,,,0.00,Rainwise IP-100,2013-04-30 06:57:00,
2013-04-30 03:02:00,38.3,37.0,30.25,NE,45,1.4,2.1,96,0.00,,,0.00,Rainwise IP-100,2013-04-30 07:02:00,
2013-04-30 03:07:00,38.4,37.0,30.25,NE,45,0.0,1.6,96,0.00,,,0.00,Rainwise IP-100,2013-04-30 07:07:00,
2013-04-30 03:12:00,38.4,37.0,30.25,NE,45,1.2,1.4,96,0.00,,,0.00,Rainwise IP-100,2013-04-30 07:12:00,
2013-04-30 03:17:00,38.3,37.0,30.25,NE,45,1.2,1.4,96,0.00,,,0.00,Rainwise IP-100,2013-04-30 07:17:00,
2013-04-30 03:22:00,38.3,37.0,30.25,NE,45,1.4,1.6,96,0.00,,,0.00,Rainwise IP-100,2013-04-30 07:22:00,
2013-04-30 03:27:00,38.4,37.0,30.25,NE,45,1.9,2.1,96,0.00,,,0.00,Rainwise IP-100,2013-04-30 07:27:00,
2013-04-30 03:32:00,38.2,37.0,30.26,NE,45,1.6,2.1,96,0.00,,,0.00,Rainwise IP-100,2013-04-30 07:32:00,
2013-04-30 03:37:00,38.1,37.0,30.26,NE,45,1.4,1.9,96,0.00,,,0.00,Rainwise IP-100,2013-04-30 07:37:00,
2013-04-30 03:42:00,38.2,37.0,30.25,NE,45,1.6,2.3,96,0.00,,,0.00,Rainwise IP-100,2013-04-30 07:42:00,
2013-04-30 03:47:00,38.0,37.0,30.26,NE,45,1.9,2.1,97,0.00,,,0.00,Rainwise IP-100,2013-04-30 07:47:00,
2013-04-30 03:52:00,38.0,37.0,30.25,NE,45,1.4,2.3,97,0.00,,,0.00,Rainwise IP-100,2013-04-30 07:52:00,
2013-04-30 03:57:00,38.0,37.0,30.25,NE,45,1.6,2.1,97,0.00,,,0.00,Rainwise IP-100,2013-04-30 07:57:00,
2013-04-30 04:02:00,37.7,37.0,30.25,NE,45,1.6,1.9,97,0.00,,,0.00,Rainwise IP-100,2013-04-30 08:02:00,
2013-04-30 04:07:00,37.4,36.0,30.26,NE,45,1.6,2.1,97,0.00,,,0.00,Rainwise IP-100,2013-04-30 08:07:00,
2013-04-30 04:12:00,37.4,36.0,30.26,NE,45,1.9,2.3,97,0.00,,,0.00,Rainwise IP-100,2013-04-30 08:12:00,
2013-04-30 04:17:00,37.0,36.0,30.25,NE,45,1.2,2.1,97,0.00,,,0.00,Rainwise IP-100,2013-04-30 08:17:00,
2013-04-30 04:22:00,36.6,36.0,30.25,NE,45,1.4,1.9,97,0.00,,,0.00,Rainwise IP-100,2013-04-30 08:22:00,
2013-04-30 04:27:00,36.4,35.0,30.26,NE,45,1.2,1.6,97,0.00,,,0.00,Rainwise IP-100,2013-04-30 08:27:00,
2013-04-30 04:32:00,36.1,35.0,30.26,NE,45,1.9,2.1,97,0.00,,,0.00,Rainwise IP-100,2013-04-30 08:32:00,
2013-04-30 04:37:00,35.8,35.0,30.26,NE,45,1.2,2.1,97,0.00,,,0.00,Rainwise IP-100,2013-04-30 08:37:00,
2013-04-30 04:42:00,35.6,35.0,30.26,NE,45,1.4,1.9,97,0.00,,,0.00,Rainwise IP-100,2013-04-30 08:42:00,
2013-04-30 04:47:00,35.6,35.0,30.26,NE,45,1.2,1.9,97,0.00,,,0.00,Rainwise IP-100,2013-04-30 08:47:00,
2013-04-30 04:52:00,35.6,35.0,30.26,NE,45,1.9,2.1,97,0.00,,,0.00,Rainwise IP-100,2013-04-30 08:52:00,
2013-04-30 04:57:00,35.7,35.0,30.26,NE,45,0.0,2.1,97,0.00,,,0.00,Rainwise IP-100,2013-04-30 08:57:00,
2013-04-30 05:02:00,36.1,36.0,30.26,NE,45,0.0,1.6,98,0.00,,,0.00,Rainwise IP-100,2013-04-30 09:02:00,
2013-04-30 05:07:00,36.4,36.0,30.26,NE,45,0.0,1.4,98,0.00,,,0.00,Rainwise IP-100,2013-04-30 09:07:00,
2013-04-30 05:12:00,36.2,36.0,30.27,NE,45,1.2,1.6,98,0.00,,,0.00,Rainwise IP-100,2013-04-30 09:12:00,
2013-04-30 05:17:00,36.2,36.0,30.27,NE,45,0.0,1.6,98,0.00,,,0.00,Rainwise IP-100,2013-04-30 09:17:00,
2013-04-30 05:22:00,36.1,36.0,30.27,NE,45,1.2,1.4,98,0.00,,,0.00,Rainwise IP-100,2013-04-30 09:22:00,
2013-04-30 05:27:00,36.0,36.0,30.27,NE,45,1.2,1.9,98,0.00,,,0.00,Rainwise IP-100,2013-04-30 09:27:00,
2013-04-30 05:32:00,36.2,36.0,30.27,NE,45,1.9,2.1,98,0.00,,,0.00,Rainwise IP-100,2013-04-30 09:32:00,
2013-04-30 05:37:00,36.7,37.0,30.27,NE,45,0.0,2.3,98,0.00,,,0.00,Rainwise IP-100,2013-04-30 09:37:00,
2013-04-30 05:42:00,37.0,37.0,30.28,NE,45,1.4,2.3,98,0.00,,,0.00,Rainwise IP-100,2013-04-30 09:42:00,
2013-04-30 05:47:00,36.8,37.0,30.27,NE,45,1.6,2.6,98,0.00,,,0.00,Rainwise IP-100,2013-04-30 09:47:00,
2013-04-30 05:52:00,36.9,37.0,30.27,NE,45,2.1,2.8,98,0.00,,,0.00,Rainwise IP-100,2013-04-30 09:52:00,
2013-04-30 05:57:00,37.3,37.0,30.28,NNE,22,2.1,3.3,99,0.00,,,0.00,Rainwise IP-100,2013-04-30 09:57:00,
2013-04-30 06:02:00,37.4,37.0,30.28,NNE,22,2.6,3.5,99,0.00,,,0.00,Rainwise IP-100,2013-04-30 10:02:00,
2013-04-30 06:07:00,37.1,37.0,30.28,NNE,22,2.1,3.0,99,0.00,,,0.00,Rainwise IP-100,2013-04-30 10:07:00,
2013-04-30 06:12:00,37.2,37.0,30.28,NNE,22,2.6,2.8,99,0.00,,,0.00,Rainwise IP-100,2013-04-30 10:12:00,
2013-04-30 06:17:00,37.7,38.0,30.28,NNE,22,1.6,2.8,99,0.00,,,0.00,Rainwise IP-100,2013-04-30 10:17:00,
2013-04-30 06:22:00,38.3,38.0,30.28,NNE,22,1.9,2.3,99,0.00,,,0.00,Rainwise IP-100,2013-04-30 10:22:00,
2013-04-30 06:27:00,38.9,39.0,30.28,NNE,22,2.1,2.3,99,0.00,,,0.00,Rainwise IP-100,2013-04-30 10:27:00,
2013-04-30 06:32:00,39.4,39.0,30.28,NNE,22,0.0,3.0,99,0.00,,,0.00,Rainwise IP-100,2013-04-30 10:32:00,
2013-04-30 06:37:00,39.7,40.0,30.28,NNE,22,1.6,2.8,99,0.00,,,0.00,Rainwise IP-100,2013-04-30 10:37:00,
2013-04-30 06:42:00,39.9,40.0,30.29,NNE,22,1.4,2.6,99,0.00,,,0.00,Rainwise IP-100,2013-04-30 10:42:00,
2013-04-30 06:47:00,40.1,40.0,30.29,NNE,22,2.1,2.6,99,0.00,,,0.00,Rainwise IP-100,2013-04-30 10:47:00,
2013-04-30 06:52:00,40.5,41.0,30.29,NNE,22,1.9,3.0,99,0.00,,,0.00,Rainwise IP-100,2013-04-30 10:52:00,
2013-04-30 06:57:00,41.2,41.0,30.29,NNE,22,0.0,2.8,99,0.00,,,0.00,Rainwise IP-100,2013-04-30 10:57:00,
2013-04-30 07:02:00,41.6,42.0,30.29,NNE,22,1.6,2.8,99,0.00,,,0.00,Rainwise IP-100,2013-04-30 11:02:00,
2013-04-30 07:07:00,41.9,42.0,30.29,NNE,22,1.9,2.6,99,0.00,,,0.00,Rainwise IP-100,2013-04-30 11:07:00,
2013-04-30 07:12:00,42.8,43.0,30.30,NNW,337,0.0,2.8,99,0.00,,,0.00,Rainwise IP-100,2013-04-30 11:12:00,
2013-04-30 07:17:00,44.0,44.0,30.30,NNW,337,0.0,2.1,99,0.00,,,0.00,Rainwise IP-100,2013-04-30 11:17:00,
2013-04-30 07:22:00,45.2,45.0,30.30,NNE,22,0.0,3.5,99,0.00,,,0.00,Rainwise IP-100,2013-04-30 11:22:00,
2013-04-30 07:27:00,46.4,45.0,30.31,NNE,22,1.2,2.8,98,0.00,,,0.00,Rainwise IP-100,2013-04-30 11:27:00,
2013-04-30 07:32:00,47.5,47.0,30.31,NE,45,1.6,3.5,96,0.00,,,0.00,Rainwise IP-100,2013-04-30 11:32:00,
2013-04-30 07:37:00,48.6,47.5,30.31,NNE,22,1.6,3.5,93,0.00,,,0.00,Rainwise IP-100,2013-04-30 11:37:00,
2013-04-30 07:42:00,49.8,47.5,30.31,NNE,22,3.5,3.5,91,0.00,,,0.00,Rainwise IP-100,2013-04-30 11:42:00,
2013-04-30 07:47:00,50.3,47.5,30.31,ENE,67,2.3,4.7,88,0.00,,,0.00,Rainwise IP-100,2013-04-30 11:47:00,
2013-04-30 07:52:00,50.5,46.0,30.31,ENE,67,1.6,3.5,85,0.00,,,0.00,Rainwise IP-100,2013-04-30 11:52:00,
2013-04-30 07:57:00,51.3,47.0,30.31,SSE,157,2.1,3.3,83,0.00,,,0.00,Rainwise IP-100,2013-04-30 11:57:00,
2013-04-30 08:02:00,51.7,46.0,30.31,NNE,22,2.6,5.4,80,0.00,,,0.00,Rainwise IP-100,2013-04-30 12:02:00,
2013-04-30 08:07:00,52.2,45.0,30.32,NNE,22,2.8,4.4,77,0.00,,,0.00,Rainwise IP-100,2013-04-30 12:07:00,
2013-04-30 08:12:00,53.4,45.0,30.32,ENE,67,0.0,5.1,74,0.00,,,0.00,Rainwise IP-100,2013-04-30 12:12:00,
2013-04-30 08:17:00,53.7,45.0,30.32,NNE,22,1.9,3.7,72,0.00,,,0.00,Rainwise IP-100,2013-04-30 12:17:00,
2013-04-30 08:22:00,53.4,44.0,30.32,NE,45,4.7,7.0,71,0.00,,,0.00,Rainwise IP-100,2013-04-30 12:22:00,
2013-04-30 08:27:00,53.2,43.0,30.32,East,90,4.2,4.9,69,0.00,,,0.00,Rainwise IP-100,2013-04-30 12:27:00,
2013-04-30 08:32:00,52.9,41.0,30.32,East,90,1.2,4.7,66,0.00,,,0.00,Rainwise IP-100,2013-04-30 12:32:00,
2013-04-30 08:37:00,52.5,41.0,30.32,ENE,67,1.6,4.2,65,0.00,,,0.00,Rainwise IP-100,2013-04-30 12:37:00,
2013-04-30 08:42:00,52.4,40.0,30.32,NNE,22,0.0,3.3,65,0.00,,,0.00,Rainwise IP-100,2013-04-30 12:42:00,
2013-04-30 08:47:00,52.4,41.0,30.32,NNE,22,1.4,1.4,66,0.00,,,0.00,Rainwise IP-100,2013-04-30 12:47:00,
2013-04-30 08:52:00,52.5,41.0,30.32,NE,45,1.4,3.5,66,0.00,,,0.00,Rainwise IP-100,2013-04-30 12:52:00,
2013-04-30 08:57:00,52.7,41.0,30.32,SE,135,0.0,4.4,64,0.00,,,0.00,Rainwise IP-100,2013-04-30 12:57:00,
2013-04-30 09:02:00,53.0,40.0,30.32,NE,45,3.0,3.5,63,0.00,,,0.00,Rainwise IP-100,2013-04-30 13:02:00,
2013-04-30 09:07:00,53.9,41.0,30.32,East,90,0.0,4.2,63,0.00,,,0.00,Rainwise IP-100,2013-04-30 13:07:00,
2013-04-30 09:12:00,55.1,41.0,30.32,NE,45,3.3,4.7,60,0.00,,,0.00,Rainwise IP-100,2013-04-30 13:12:00,
2013-04-30 09:17:00,55.4,40.0,30.33,NNE,22,2.8,5.8,57,0.00,,,0.00,Rainwise IP-100,2013-04-30 13:17:00,
2013-04-30 09:22:00,56.1,40.0,30.32,ESE,112,1.6,4.9,55,0.00,,,0.00,Rainwise IP-100,2013-04-30 13:22:00,
2013-04-30 09:27:00,57.2,39.0,30.32,SE,135,4.0,4.9,52,0.00,,,0.00,Rainwise IP-100,2013-04-30 13:27:00,
2013-04-30 09:32:00,57.5,39.0,30.32,NE,45,0.0,6.1,50,0.00,,,0.00,Rainwise IP-100,2013-04-30 13:32:00,
2013-04-30 09:37:00,57.6,38.0,30.33,NE,45,3.5,6.3,48,0.00,,,0.00,Rainwise IP-100,2013-04-30 13:37:00,
2013-04-30 09:42:00,57.8,38.0,30.33,SE,135,3.7,5.6,46,0.00,,,0.00,Rainwise IP-100,2013-04-30 13:42:00,
2013-04-30 09:45:00,57.6,37.0,30.33,SSE,157,5.4,7.7,45,0.00,,,0.00,Rainwise IP-100,2013-04-30 13:45:00,
2013-04-30 09:50:00,57.9,37.0,30.33,ENE,67,2.8,7.0,45,0.00,,,0.00,Rainwise IP-100,2013-04-30 13:50:00,
2013-04-30 09:55:00,57.8,37.0,30.33,ENE,67,5.1,7.9,44,0.00,,,0.00,Rainwise IP-100,2013-04-30 13:55:00,
2013-04-30 10:00:00,57.9,36.0,30.33,East,90,2.1,7.7,43,0.00,,,0.00,Rainwise IP-100,2013-04-30 14:00:00,
2013-04-30 10:05:00,58.4,35.0,30.33,SSE,157,4.4,4.9,41,0.00,,,0.00,Rainwise IP-100,2013-04-30 14:05:00,
2013-04-30 10:10:00,58.4,35.0,30.33,SSE,157,3.5,7.0,41,0.00,,,0.00,Rainwise IP-100,2013-04-30 14:10:00,
2013-04-30 10:15:00,58.0,35.0,30.33,SSE,157,5.1,8.9,41,0.00,,,0.00,Rainwise IP-100,2013-04-30 14:15:00,
2013-04-30 10:20:00,58.2,35.0,30.33,SE,135,1.6,8.9,41,0.00,,,0.00,Rainwise IP-100,2013-04-30 14:20:00,
2013-04-30 10:25:00,58.9,36.0,30.33,ENE,67,5.1,5.4,41,0.00,,,0.00,Rainwise IP-100,2013-04-30 14:25:00,
2013-04-30 10:30:00,59.2,35.0,30.32,NNE,22,2.3,6.8,39,0.00,,,0.00,Rainwise IP-100,2013-04-30 14:30:00,
2013-04-30 10:35:00,59.3,33.0,30.33,SSE,157,2.8,8.2,37,0.00,,,0.00,Rainwise IP-100,2013-04-30 14:35:00,
2013-04-30 10:40:00,58.9,32.0,30.33,ENE,67,2.8,8.4,36,0.00,,,0.00,Rainwise IP-100,2013-04-30 14:40:00,
2013-04-30 10:45:00,59.1,33.0,30.33,NNE,22,4.4,5.6,37,0.00,,,0.00,Rainwise IP-100,2013-04-30 14:45:00,
2013-04-30 10:50:00,59.4,32.0,30.33,SSE,157,4.7,6.8,36,0.00,,,0.00,Rainwise IP-100,2013-04-30 14:50:00,
2013-04-30 10:55:00,59.2,32.0,30.33,South,180,4.4,10.0,35,0.00,,,0.00,Rainwise IP-100,2013-04-30 14:55:00,
2013-04-30 11:00:00,59.3,31.0,30.33,SSE,157,3.5,11.0,34,0.00,,,0.00,Rainwise IP-100,2013-04-30 15:00:00,
2013-04-30 11:05:00,59.4,31.0,30.33,South,180,1.2,9.1,33,0.00,,,0.00,Rainwise IP-100,2013-04-30 15:05:00,
2013-04-30 11:10:00,59.1,29.0,30.33,SSE,157,3.0,8.6,32,0.00,,,0.00,Rainwise IP-100,2013-04-30 15:10:00,
2013-04-30 11:15:00,59.1,29.0,30.33,SSE,157,2.6,11.0,31,0.00,,,0.00,Rainwise IP-100,2013-04-30 15:15:00,
2013-04-30 11:20:00,59.4,29.0,30.33,ENE,67,2.1,7.0,31,0.00,,,0.00,Rainwise IP-100,2013-04-30 15:20:00,
2013-04-30 11:25:00,59.7,28.0,30.33,NNE,22,1.4,8.6,30,0.00,,,0.00,Rainwise IP-100,2013-04-30 15:25:00,
2013-04-30 11:30:00,59.9,28.0,30.32,ESE,112,3.5,8.4,29,0.00,,,0.00,Rainwise IP-100,2013-04-30 15:30:00,
2013-04-30 11:35:00,60.2,28.0,30.32,SSE,157,8.2,9.8,29,0.00,,,0.00,Rainwise IP-100,2013-04-30 15:35:00,
2013-04-30 11:40:00,60.5,28.0,30.33,SE,135,2.3,9.8,29,0.00,,,0.00,Rainwise IP-100,2013-04-30 15:40:00,
2013-04-30 11:45:00,60.3,29.0,30.32,SSE,157,4.7,9.1,30,0.00,,,0.00,Rainwise IP-100,2013-04-30 15:45:00,
2013-04-30 11:50:00,60.3,29.0,30.32,NNE,22,1.6,7.0,30,0.00,,,0.00,Rainwise IP-100,2013-04-30 15:50:00,
2013-04-30 11:55:00,60.6,29.0,30.32,SE,135,7.5,8.9,31,0.00,,,0.00,Rainwise IP-100,2013-04-30 15:55:00,
2013-04-30 12:00:00,60.3,29.0,30.32,South,180,6.8,8.9,31,0.00,,,0.00,Rainwise IP-100,2013-04-30 16:00:00,
2013-04-30 12:05:00,60.2,29.0,30.32,ESE,112,0.0,7.9,31,0.00,,,0.00,Rainwise IP-100,2013-04-30 16:05:00,
2013-04-30 12:10:00,60.5,29.0,30.32,East,90,1.4,7.7,31,0.00,,,0.00,Rainwise IP-100,2013-04-30 16:10:00,
2013-04-30 12:15:00,60.2,29.0,30.32,ESE,112,4.0,8.9,30,0.00,,,0.00,Rainwise IP-100,2013-04-30 16:15:00,
2013-04-30 12:20:00,60.2,29.0,30.32,ENE,67,2.6,6.8,30,0.00,,,0.00,Rainwise IP-100,2013-04-30 16:20:00,
2013-04-30 12:25:00,60.9,29.0,30.32,SSE,157,8.9,11.0,30,0.00,,,0.00,Rainwise IP-100,2013-04-30 16:25:00,
2013-04-30 12:30:00,61.0,31.0,30.32,SSE,157,7.7,10.0,31,0.00,,,0.00,Rainwise IP-100,2013-04-30 16:30:00,
2013-04-30 12:35:00,60.5,29.0,30.31,SSW,202,5.1,7.7,31,0.00,,,0.00,Rainwise IP-100,2013-04-30 16:35:00,
2013-04-30 12:40:00,60.9,31.0,30.31,East,90,5.1,8.4,31,0.00,,,0.00,Rainwise IP-100,2013-04-30 16:40:00,
2013-04-30 12:45:00,61.5,32.0,30.31,South,180,6.8,7.9,32,0.00,,,0.00,Rainwise IP-100,2013-04-30 16:45:00,
2013-04-30 12:50:00,61.2,31.0,30.31,SE,135,7.9,10.0,32,0.00,,,0.00,Rainwise IP-100,2013-04-30 16:50:00,
2013-04-30 12:55:00,60.8,32.0,30.32,SSE,157,7.7,9.3,33,0.00,,,0.00,Rainwise IP-100,2013-04-30 16:55:00,
2013-04-30 13:00:00,60.7,32.0,30.31,ENE,67,2.3,8.2,34,0.00,,,0.00,Rainwise IP-100,2013-04-30 17:00:00,
2013-04-30 13:05:00,60.8,32.0,30.31,SE,135,4.4,9.3,33,0.00,,,0.00,Rainwise IP-100,2013-04-30 17:05:00,
2013-04-30 13:10:00,61.0,32.0,30.31,SSE,157,7.9,10.5,34,0.00,,,0.00,Rainwise IP-100,2013-04-30 17:10:00,
2013-04-30 13:15:00,61.1,33.0,30.31,SSE,157,4.0,11.9,35,0.00,,,0.00,Rainwise IP-100,2013-04-30 17:15:00,
2013-04-30 13:20:00,60.9,33.0,30.31,ESE,112,2.3,10.0,35,0.00,,,0.00,Rainwise IP-100,2013-04-30 17:20:00,
2013-04-30 13:25:00,60.6,32.0,30.31,East,90,1.6,11.0,34,0.00,,,0.00,Rainwise IP-100,2013-04-30 17:25:00,
2013-04-30 13:30:00,60.7,32.0,30.32,ENE,67,1.2,10.3,34,0.00,,,0.00,Rainwise IP-100,2013-04-30 17:30:00,
2013-04-30 13:35:00,60.9,33.0,30.31,South,180,8.6,12.6,35,0.00,,,0.00,Rainwise IP-100,2013-04-30 17:35:00,
2013-04-30 13:40:00,60.9,33.0,30.31,SSE,157,8.6,9.1,36,0.00,,,0.00,Rainwise IP-100,2013-04-30 17:40:00,
2013-04-30 13:45:00,60.8,33.0,30.32,South,180,9.3,9.3,36,0.00,,,0.00,Rainwise IP-100,2013-04-30 17:45:00,
2013-04-30 13:50:00,61.1,35.0,30.32,SSW,202,5.6,11.2,37,0.00,,,0.00,Rainwise IP-100,2013-04-30 17:50:00,
2013-04-30 13:55:00,61.2,36.0,30.31,SE,135,7.2,11.7,38,0.00,,,0.00,Rainwise IP-100,2013-04-30 17:55:00,
2013-04-30 14:00:00,60.9,33.0,30.31,SE,135,3.7,9.8,36,0.00,,,0.00,Rainwise IP-100,2013-04-30 18:00:00,
2013-04-30 14:05:00,60.6,33.0,30.32,South,180,9.1,9.8,35,0.00,,,0.00,Rainwise IP-100,2013-04-30 18:05:00,
2013-04-30 14:10:00,60.4,32.0,30.32,East,90,3.7,9.8,34,0.00,,,0.00,Rainwise IP-100,2013-04-30 18:10:00,
2013-04-30 14:15:00,60.1,32.0,30.32,SSE,157,9.1,9.1,35,0.00,,,0.00,Rainwise IP-100,2013-04-30 18:15:00,
2013-04-30 14:20:00,60.2,35.0,30.32,South,180,6.5,9.8,39,0.00,,,0.00,Rainwise IP-100,2013-04-30 18:20:00,
2013-04-30 14:25:00,60.3,37.0,30.32,South,180,8.6,9.1,42,0.00,,,0.00,Rainwise IP-100,2013-04-30 18:25:00,
2013-04-30 14:30:00,59.6,37.0,30.32,South,180,9.6,11.0,44,0.00,,,0.00,Rainwise IP-100,2013-04-30 18:30:00,
2013-04-30 14:35:00,59.1,39.0,30.32,SSE,157,7.9,9.8,48,0.00,,,0.00,Rainwise IP-100,2013-04-30 18:35:00,
2013-04-30 14:40:00,59.0,41.0,30.32,SSE,157,5.6,10.3,51,0.00,,,0.00,Rainwise IP-100,2013-04-30 18:40:00,
2013-04-30 14:45:00,59.0,42.0,30.31,South,180,6.1,9.8,53,0.00,,,0.00,Rainwise IP-100,2013-04-30 18:45:00,
2013-04-30 14:50:00,58.5,42.0,30.32,SSE,157,5.8,13.1,54,0.00,,,0.00,Rainwise IP-100,2013-04-30 18:50:00,
2013-04-30 14:55:00,58.0,42.0,30.32,SSW,202,5.8,11.0,55,0.00,,,0.00,Rainwise IP-100,2013-04-30 18:55:00,
2013-04-30 15:00:00,57.8,42.0,30.32,SSW,202,4.2,8.9,56,0.00,,,0.00,Rainwise IP-100,2013-04-30 19:00:00,
2013-04-30 15:05:00,57.9,42.0,30.32,South,180,7.5,9.1,56,0.00,,,0.00,Rainwise IP-100,2013-04-30 19:05:00,
2013-04-30 15:10:00,58.0,41.0,30.31,SSE,157,5.6,11.0,53,0.00,,,0.00,Rainwise IP-100,2013-04-30 19:10:00,
2013-04-30 15:15:00,57.9,40.0,30.32,SSW,202,4.2,10.3,50,0.00,,,0.00,Rainwise IP-100,2013-04-30 19:15:00,
2013-04-30 15:20:00,57.6,38.0,30.31,SSW,202,5.6,11.4,48,0.00,,,0.00,Rainwise IP-100,2013-04-30 19:20:00,
2013-04-30 15:25:00,57.5,38.0,30.31,South,180,4.4,10.7,47,0.00,,,0.00,Rainwise IP-100,2013-04-30 19:25:00,
2013-04-30 15:30:00,57.6,38.0,30.31,SSE,157,5.4,12.4,47,0.00,,,0.00,Rainwise IP-100,2013-04-30 19:30:00,
2013-04-30 15:35:00,57.3,37.0,30.31,South,180,6.5,10.5,46,0.00,,,0.00,Rainwise IP-100,2013-04-30 19:35:00,
2013-04-30 15:40:00,57.5,37.0,30.31,South,180,6.5,11.9,45,0.00,,,0.00,Rainwise IP-100,2013-04-30 19:40:00,
2013-04-30 15:45:00,57.6,36.0,30.31,SE,135,4.7,10.3,43,0.00,,,0.00,Rainwise IP-100,2013-04-30 19:45:00,
2013-04-30 15:50:00,57.7,35.0,30.31,SSE,157,9.6,10.5,42,0.00,,,0.00,Rainwise IP-100,2013-04-30 19:50:00,
2013-04-30 15:55:00,58.1,35.0,30.31,SSE,157,8.9,11.0,41,0.00,,,0.00,Rainwise IP-100,2013-04-30 19:55:00,
2013-04-30 16:00:00,58.1,35.0,30.31,SSW,202,5.4,11.0,41,0.00,,,0.00,Rainwise IP-100,2013-04-30 20:00:00,
2013-04-30 16:05:00,57.4,35.0,30.32,South,180,9.6,11.4,42,0.00,,,0.00,Rainwise IP-100,2013-04-30 20:05:00,
2013-04-30 16:10:00,56.9,35.0,30.31,SSW,202,6.5,11.9,42,0.00,,,0.00,Rainwise IP-100,2013-04-30 20:10:00,
2013-04-30 16:15:00,56.8,33.0,30.31,South,180,3.5,11.0,41,0.00,,,0.00,Rainwise IP-100,2013-04-30 20:15:00,
2013-04-30 16:20:00,56.8,33.0,30.31,SSE,157,3.7,10.5,40,0.00,,,0.00,Rainwise IP-100,2013-04-30 20:20:00,
2013-04-30 16:25:00,56.7,32.0,30.31,SSE,157,5.1,9.8,40,0.00,,,0.00,Rainwise IP-100,2013-04-30 20:25:00,
2013-04-30 16:30:00,56.7,32.0,30.31,South,180,6.5,9.6,40,0.00,,,0.00,Rainwise IP-100,2013-04-30 20:30:00,
2013-04-30 16:35:00,56.8,33.0,30.31,SSE,157,7.9,9.6,40,0.00,,,0.00,Rainwise IP-100,2013-04-30 20:35:00,
2013-04-30 16:40:00,56.9,33.0,30.31,SSE,157,2.1,10.5,40,0.00,,,0.00,Rainwise IP-100,2013-04-30 20:40:00,
2013-04-30 16:45:00,57.2,33.0,30.31,South,180,6.3,9.6,41,0.00,,,0.00,Rainwise IP-100,2013-04-30 20:45:00,
2013-04-30 16:50:00,57.6,35.0,30.32,SSW,202,5.1,7.7,41,0.00,,,0.00,Rainwise IP-100,2013-04-30 20:50:00,
2013-04-30 16:55:00,57.8,35.0,30.32,SSW,202,5.1,7.9,40,0.00,,,0.00,Rainwise IP-100,2013-04-30 20:55:00,
2013-04-30 17:00:00,58.0,35.0,30.32,SSW,202,4.4,7.5,40,0.00,,,0.00,Rainwise IP-100,2013-04-30 21:00:00,
2013-04-30 17:05:00,58.3,33.0,30.31,SSW,202,3.7,7.2,39,0.00,,,0.00,Rainwise IP-100,2013-04-30 21:05:00,
2013-04-30 17:10:00,58.3,33.0,30.31,SSE,157,5.1,7.0,39,0.00,,,0.00,Rainwise IP-100,2013-04-30 21:10:00,
2013-04-30 17:15:00,58.1,35.0,30.31,SSE,157,4.4,7.7,40,0.00,,,0.00,Rainwise IP-100,2013-04-30 21:15:00,
2013-04-30 17:20:00,58.2,35.0,30.32,South,180,4.4,7.5,40,0.00,,,0.00,Rainwise IP-100,2013-04-30 21:20:00,
2013-04-30 17:25:00,58.2,35.0,30.31,South,180,6.1,8.2,40,0.00,,,0.00,Rainwise IP-100,2013-04-30 21:25:00,
2013-04-30 17:30:00,57.4,33.0,30.32,South,180,4.2,8.4,39,0.00,,,0.00,Rainwise IP-100,2013-04-30 21:30:00,
2013-04-30 17:35:00,57.0,33.0,30.32,SE,135,3.7,7.2,40,0.00,,,0.00,Rainwise IP-100,2013-04-30 21:35:00,
2013-04-30 17:40:00,57.2,33.0,30.32,South,180,5.6,8.2,40,0.00,,,0.00,Rainwise IP-100,2013-04-30 21:40:00,
2013-04-30 17:45:00,57.5,33.0,30.32,SSW,202,5.8,7.5,40,0.00,,,0.00,Rainwise IP-100,2013-04-30 21:45:00,
2013-04-30 17:50:00,57.9,33.0,30.32,SW,225,3.3,7.5,39,0.00,,,0.00,Rainwise IP-100,2013-04-30 21:50:00,
2013-04-30 17:55:00,57.9,33.0,30.32,SW,225,2.1,5.8,39,0.00,,,0.00,Rainwise IP-100,2013-04-30 21:55:00,
2013-04-30 18:00:00,57.9,35.0,30.32,South,180,0.0,5.4,41,0.00,,,0.00,Rainwise IP-100,2013-04-30 22:00:00,
2013-04-30 18:05:00,57.6,35.0,30.32,SSW,202,2.3,6.3,42,0.00,,,0.00,Rainwise IP-100,2013-04-30 22:05:00,
2013-04-30 18:10:00,57.4,35.0,30.32,WSW,247,3.3,4.0,42,0.00,,,0.00,Rainwise IP-100,2013-04-30 22:10:00,
2013-04-30 18:15:00,57.4,36.0,30.32,SE,135,3.7,3.7,43,0.00,,,0.00,Rainwise IP-100,2013-04-30 22:15:00,
2013-04-30 18:20:00,57.0,36.0,30.32,SSW,202,4.0,5.4,44,0.00,,,0.00,Rainwise IP-100,2013-04-30 22:20:00,
2013-04-30 18:25:00,56.9,36.0,30.32,SSE,157,2.1,6.3,44,0.00,,,0.00,Rainwise IP-100,2013-04-30 22:25:00,
2013-04-30 18:30:00,56.8,35.0,30.32,SE,135,3.7,5.6,42,0.00,,,0.00,Rainwise IP-100,2013-04-30 22:30:00,
2013-04-30 18:35:00,55.8,32.0,30.32,South,180,2.1,5.1,41,0.00,,,0.00,Rainwise IP-100,2013-04-30 22:35:00,
2013-04-30 18:40:00,55.6,32.0,30.33,SW,225,1.2,3.7,41,0.00,,,0.00,Rainwise IP-100,2013-04-30 22:40:00,
2013-04-30 18:45:00,56.1,33.0,30.32,SW,225,4.4,5.1,43,0.00,,,0.00,Rainwise IP-100,2013-04-30 22:45:00,
2013-04-30 18:50:00,55.9,35.0,30.33,SSW,202,2.8,5.8,44,0.00,,,0.00,Rainwise IP-100,2013-04-30 22:50:00,
2013-04-30 18:55:00,55.5,35.0,30.33,South,180,3.5,5.4,44,0.00,,,0.00,Rainwise IP-100,2013-04-30 22:55:00,
2013-04-30 19:00:00,54.9,33.0,30.33,SSW,202,1.2,4.2,44,0.00,,,0.00,Rainwise IP-100,2013-04-30 23:00:00,
2013-04-30 19:05:00,54.1,33.0,30.33,SSE,157,3.7,4.7,45,0.00,,,0.00,Rainwise IP-100,2013-04-30 23:05:00,
2013-04-30 19:10:00,53.2,32.0,30.33,South,180,2.1,4.4,46,0.00,,,0.00,Rainwise IP-100,2013-04-30 23:10:00,
2013-04-30 19:15:00,52.6,32.0,30.33,SSE,157,2.1,3.3,46,0.00,,,0.00,Rainwise IP-100,2013-04-30 23:15:00,
2013-04-30 19:20:00,52.1,32.0,30.34,South,180,1.4,2.8,47,0.00,,,0.00,Rainwise IP-100,2013-04-30 23:20:00,
2013-04-30 19:25:00,51.6,33.0,30.33,SSW,202,0.0,3.5,48,0.00,,,0.00,Rainwise IP-100,2013-04-30 23:25:00,
2013-04-30 19:30:00,51.1,33.0,30.33,South,180,1.9,2.8,50,0.00,,,0.00,Rainwise IP-100,2013-04-30 23:30:00,
2013-04-30 19:35:00,50.7,33.0,30.33,South,180,0.0,1.9,51,0.00,,,0.00,Rainwise IP-100,2013-04-30 23:35:00,
2013-04-30 19:40:00,50.2,33.0,30.33,South,180,0.0,0.0,52,0.00,,,0.00,Rainwise IP-100,2013-04-30 23:40:00,
2013-04-30 19:45:00,49.5,33.0,30.33,WSW,247,0.0,0.0,53,0.00,,,0.00,Rainwise IP-100,2013-04-30 23:45:00,
2013-04-30 19:50:00,49.0,33.0,30.34,WSW,247,1.4,2.1,54,0.00,,,0.00,Rainwise IP-100,2013-04-30 23:50:00,
2013-04-30 19:55:00,49.0,33.0,30.34,WSW,247,0.0,1.6,55,0.00,,,0.00,Rainwise IP-100,2013-04-30 23:55:00,
2013-04-30 20:00:00,48.7,35.0,30.34,WSW,247,0.0,0.0,57,0.00,,,0.00,Rainwise IP-100,2013-05-01 00:00:00,
2013-04-30 20:05:00,48.3,35.0,30.33,WSW,247,0.0,1.6,58,0.00,,,0.00,Rainwise IP-100,2013-05-01 00:05:00,
2013-04-30 20:10:00,47.9,35.0,30.34,WSW,247,0.0,0.0,58,0.00,,,0.00,Rainwise IP-100,2013-05-01 00:10:00,
2013-04-30 20:15:00,47.6,33.0,30.34,WSW,247,0.0,0.0,59,0.00,,,0.00,Rainwise IP-100,2013-05-01 00:15:00,
2013-04-30 20:20:00,47.4,35.0,30.34,WSW,247,0.0,1.2,60,0.00,,,0.00,Rainwise IP-100,2013-05-01 00:20:00,
2013-04-30 20:25:00,47.1,35.0,30.35,WSW,247,0.0,1.6,61,0.00,,,0.00,Rainwise IP-100,2013-05-01 00:25:00,
2013-04-30 20:30:00,46.9,35.0,30.35,WSW,247,0.0,0.0,62,0.00,,,0.00,Rainwise IP-100,2013-05-01 00:30:00,
2013-04-30 20:35:00,46.6,35.0,30.35,WSW,247,0.0,1.2,63,0.00,,,0.00,Rainwise IP-100,2013-05-01 00:35:00,
2013-04-30 20:40:00,46.4,35.0,30.35,WSW,247,0.0,1.2,64,0.00,,,0.00,Rainwise IP-100,2013-05-01 00:40:00,
2013-04-30 20:45:00,46.1,35.0,30.35,WSW,247,0.0,0.0,64,0.00,,,0.00,Rainwise IP-100,2013-05-01 00:45:00,
2013-04-30 20:50:00,45.5,35.0,30.35,WSW,247,0.0,0.0,64,0.00,,,0.00,Rainwise IP-100,2013-05-01 00:50:00,
2013-04-30 20:55:00,44.8,35.0,30.35,WSW,247,0.0,0.0,65,0.00,,,0.00,Rainwise IP-100,2013-05-01 00:55:00,
2013-04-30 21:00:00,44.1,33.0,30.35,WSW,247,0.0,0.0,67,0.00,,,0.00,Rainwise IP-100,2013-05-01 01:00:00,
2013-04-30 21:05:00,43.6,35.0,30.35,WSW,247,0.0,0.0,68,0.00,,,0.00,Rainwise IP-100,2013-05-01 01:05:00,
2013-04-30 21:10:00,43.1,33.0,30.35,WSW,247,0.0,0.0,69,0.00,,,0.00,Rainwise IP-100,2013-05-01 01:10:00,
2013-04-30 21:15:00,42.8,35.0,30.35,WSW,247,0.0,0.0,70,0.00,,,0.00,Rainwise IP-100,2013-05-01 01:15:00,
2013-04-30 21:20:00,42.5,35.0,30.36,WSW,247,0.0,0.0,72,0.00,,,0.00,Rainwise IP-100,2013-05-01 01:20:00,
2013-04-30 21:25:00,42.3,33.0,30.35,WSW,247,0.0,0.0,72,0.00,,,0.00,Rainwise IP-100,2013-05-01 01:25:00,
2013-04-30 21:30:00,42.2,35.0,30.36,WSW,247,0.0,0.0,74,0.00,,,0.00,Rainwise IP-100,2013-05-01 01:30:00,
2013-04-30 21:35:00,42.2,35.0,30.35,WSW,247,0.0,0.0,75,0.00,,,0.00,Rainwise IP-100,2013-05-01 01:35:00,
2013-04-30 21:40:00,42.3,36.0,30.34,WSW,247,0.0,0.0,76,0.00,,,0.00,Rainwise IP-100,2013-05-01 01:40:00,
2013-04-30 21:45:00,42.6,37.0,30.35,WSW,247,0.0,0.0,77,0.00,,,0.00,Rainwise IP-100,2013-05-01 01:45:00,
2013-04-30 21:50:00,42.4,36.0,30.35,WSW,247,0.0,0.0,77,0.00,,,0.00,Rainwise IP-100,2013-05-01 01:50:00,
2013-04-30 21:55:00,41.9,36.0,30.35,WSW,247,0.0,0.0,77,0.00,,,0.00,Rainwise IP-100,2013-05-01 01:55:00,
2013-04-30 22:00:00,41.3,35.0,30.35,WSW,247,0.0,0.0,77,0.00,,,0.00,Rainwise IP-100,2013-05-01 02:00:00,
2013-04-30 22:05:00,41.0,35.0,30.35,WSW,247,0.0,0.0,77,0.00,,,0.00,Rainwise IP-100,2013-05-01 02:05:00,
2013-04-30 22:10:00,40.8,36.0,30.35,WSW,247,0.0,0.0,79,0.00,,,0.00,Rainwise IP-100,2013-05-01 02:10:00,
2013-04-30 22:15:00,40.7,36.0,30.35,WSW,247,0.0,0.0,80,0.00,,,0.00,Rainwise IP-100,2013-05-01 02:15:00,
2013-04-30 22:20:00,40.9,36.0,30.35,WSW,247,0.0,0.0,82,0.00,,,0.00,Rainwise IP-100,2013-05-01 02:20:00,
2013-04-30 22:25:00,41.2,37.0,30.35,WSW,247,0.0,0.0,83,0.00,,,0.00,Rainwise IP-100,2013-05-01 02:25:00,
2013-04-30 22:30:00,41.5,38.0,30.35,WSW,247,2.1,2.1,84,0.00,,,0.00,Rainwise IP-100,2013-05-01 02:30:00,
2013-04-30 22:35:00,41.8,38.0,30.35,WSW,247,0.0,2.6,84,0.00,,,0.00,Rainwise IP-100,2013-05-01 02:35:00,
2013-04-30 22:40:00,41.7,38.0,30.35,WSW,247,1.2,1.6,84,0.00,,,0.00,Rainwise IP-100,2013-05-01 02:40:00,
2013-04-30 22:45:00,41.6,38.0,30.35,WSW,247,0.0,1.6,84,0.00,,,0.00,Rainwise IP-100,2013-05-01 02:45:00,
2013-04-30 22:50:00,41.3,37.0,30.35,WSW,247,0.0,0.0,84,0.00,,,0.00,Rainwise IP-100,2013-05-01 02:50:00,
2013-04-30 22:55:00,40.7,37.0,30.36,WSW,247,0.0,0.0,84,0.00,,,0.00,Rainwise IP-100,2013-05-01 02:55:00,
2013-04-30 23:00:00,40.1,36.0,30.35,WSW,247,0.0,0.0,84,0.00,,,0.00,Rainwise IP-100,2013-05-01 03:00:00,
2013-04-30 23:05:00,39.7,36.0,30.35,WSW,247,0.0,0.0,84,0.00,,,0.00,Rainwise IP-100,2013-05-01 03:05:00,
2013-04-30 23:10:00,39.3,35.0,30.35,WSW,247,0.0,0.0,85,0.00,,,0.00,Rainwise IP-100,2013-05-01 03:10:00,
2013-04-30 23:15:00,39.0,35.0,30.35,WSW,247,0.0,0.0,85,0.00,,,0.00,Rainwise IP-100,2013-05-01 03:15:00,
2013-04-30 23:20:00,38.8,36.0,30.35,WSW,247,0.0,0.0,86,0.00,,,0.00,Rainwise IP-100,2013-05-01 03:20:00,
2013-04-30 23:25:00,38.5,36.0,30.35,WSW,247,0.0,0.0,87,0.00,,,0.00,Rainwise IP-100,2013-05-01 03:25:00,
2013-04-30 23:30:00,38.4,35.0,30.35,WSW,247,0.0,0.0,87,0.00,,,0.00,Rainwise IP-100,2013-05-01 03:30:00,
2013-04-30 23:35:00,38.4,35.0,30.35,WSW,247,0.0,0.0,88,0.00,,,0.00,Rainwise IP-100,2013-05-01 03:35:00,
2013-04-30 23:40:00,38.3,35.0,30.34,WSW,247,0.0,0.0,88,0.00,,,0.00,Rainwise IP-100,2013-05-01 03:40:00,
2013-04-30 23:45:00,38.2,35.0,30.35,WSW,247,0.0,0.0,88,0.00,,,0.00,Rainwise IP-100,2013-05-01 03:45:00,
2013-04-30 23:50:00,38.0,35.0,30.35,WSW,247,0.0,0.0,89,0.00,,,0.00,Rainwise IP-100,2013-05-01 03:50:00,
2013-04-30 23:55:00,38.1,35.0,30.35,WSW,247,0.0,0.0,89,0.00,,,0.00,Rainwise IP-100,2013-05-01 03:55:00,